Location: Ústí nad Labem
(50.6611°N, 14.0531°E)
Time: 01:36:32
(UTC+02:00)

A-11 Canister half - Pass Details

Date: 19 April 2024
Orbit: 1525 x 1683 km, 47.3° (Epoch: 19 May)

Event Time Altitude Azimuth Distance (km) Brightness Sun altitude
Rises 04:54:57 0° 174° (S) 4,850 11.3 -10.2°
Reaches altitude 10° 05:00:03 10° 153° (SSE) 3,896 11.1 -9.5°
Maximum altitude 05:04:46 14° 124° (SE) 3,567 11.3 -8.9°
Drops below altitude 10° 05:09:31 10° 95° (E) 3,940 12.1 -8.2°
Sets 05:14:41 0° 74° (ENE) 4,941 13.7 -7.5°
